SCP
-0 -0 -0 0 0 0 -0 -0 0 0 0 0 0 0 0 0 0 0 0 0 0 0 0 0 0 0 0 0 0 0 0 0 0 1 1 1 1 1 1 1 1 2 2 1
0 0 0 0 -0 -0 -0 0 0 0 0 1 0 0 0 0 0 0 0 0 0 0 0 0 0 0 0 0 0 0 0 0 0 1 1 1 1 1 1 1 2 2 1 1
0 0 0 -0 0 0 0 0 0 0 0 0 0 0 0 0 0 0 0 0 0 0 0 0 0 0 0 0 0 0 0 0 0 0 1 1 1 1 1 1 1 2 1 1
0 0 -0 0 0 0 0 0 0 0 0 0 0 0 0 0 0 0 0 0 0 0 0 0 0 0 0 0 0 0 0 0 0 0 0 1 1 1 1 1 1 1 1 1
0 0 0 0 0 0 0 0 0 0 0 0 0 0 0 0 0 0 0 0 0 0 0 0 0 0 0 0 0 0 0 0 0 0 0 0 0 0 1 1 1 1 1 1
0 0 0 0 0 0 0 0 0 0 0 0 0 0 0 0 0 0 0 0 0 0 0 0 0 0 0 0 0 0 0 0 0 0 0 0 0 0 0 1 1 1 1 1
0 0 0 0 0 0 0 0 0 0 0 0 0 0 0 0 0 0 0 0 0 0 0 0 0 0 0 0 0 0 0 0 0 0 0 0 0 0 0 0 1 1 1 1
0 0 0 0 0 0 0 0 0 0 0 0 0 0 0 0 0 0 0 0 0 0 0 0 0 0 0 0 0 0 0 0 0 0 0 0 0 0 0 0 1 1 1 1
0 0 0 0 0 0 0 0 0 0 0 0 0 0 0 0 0 0 0 0 0 0 0 0 0 0 0 0 0 0 0 0 0 0 0 0 0 0 0 0 0 0 0 0
0 0 0 0 0 0 0 0 0 0 0 0 0 0 0 0 0 0 0 0 0 0 0 0 0 0 0 0 0 0 0 0 0 0 0 0 0 0 0 0 0 0 0 0
0 0 0 0 0 0 0 0 0 0 0 0 0 0 0 0 0 0 0 0 0 0 0 0 0 0 0 0 0 0 0 0 0 0 0 0 0 0 0 -0 0 0 0 0
0 0 0 0 0 0 0 0 0 0 0 0 0 0 0 0 0 0 0 0 0 0 0 0 0 0 0 0 0 0 0 0 0 0 0 0 0 0 0 0 0 -0 -0 0
0 0 0 0 0 0 0 0 0 0 0 0 0 0 0 0 0 0 0 0 0 0 0 0 0 0 0 0 0 0 0 0 0 0 0 0 0 0 0 0 0 0 0 0
0 0 0 0 0 0 0 0 0 0 0 0 0 0 0 0 0 0 0 0 0 0 0 0 0 0 0 0 0 0 0 0 0 0 0 0 0 0 0 0 0 0 0 0
0 0 0 0 0 0 0 0 0 0 0 0 0 0 0 0 0 0 0 0 0 0 0 0 0 0 0 0 0 0 0 0 0 0 0 0 0 0 0 0 0 0 0 0
0 0 0 0 0 0 0 0 0 0 0 0 0 0 0 0 0 0 0 0 0 0 0 0 0 0 0 0 -0 0 0 0 0 0 0 0 0 0 0 0 0 0 0 0
0 0 0 0 0 0 0 0 0 0 0 0 0 0 0 0 0 0 0 0 0 0 0 0 0 0 0 0 0 0 0 0 0 0 0 0 0 0 0 0 0 0 0 0
0 0 0 0 0 0 0 0 0 0 0 0 0 0 0 0 0 0 0 0 0 0 0 0 0 0 0 0 0 0 0 0 0 0 0 0 0 0 0 0 0 0 0 0
0 0 0 0 0 0 0 0 0 0 0 0 0 0 0 0 0 0 0 0 0 0 0 0 0 0 0 0 0 0 0 0 0 0 0 0 0 0 0 0 0 0 0 0
0 0 0 0 0 0 0 0 0 0 0 0 0 0 0 0 0 0 0 0 0 0 0 0 0 0 0 0 0 -0 0 0 0 0 0 -0 0 0 0 0 0 0 0 0
0 0 0 0 0 0 0 0 0 0 0 0 0 0 0 0 0 0 0 0 0 0 0 0 0 0 0 0 0 0 0 0 0 0 0 0 0 0 0 0 0 0 0 0
0 0 0 0 0 0 0 0 0 0 0 0 0 0 0 0 0 0 0 0 0 0 0 0 0 0 -0 0 0 0 0 0 -0 0 0 0 0 0 0 0 0 0 0 0
0 0 0 0 0 0 0 0 0 0 0 0 0 0 0 0 0 0 0 0 0 0 0 0 0 0 0 0 0 0 0 0 0 -0 0 0 0 0 0 0 0 0 0 0
0 0 0 0 0 0 0 0 0 0 0 0 0 0 0 0 0 0 0 0 0 0 0 0 0 0 0 0 0 0 0 0 0 -0 -0 0 0 0 0 0 0 0 0 0
0 0 0 0 0 0 0 0 0 0 0 0 0 0 0 0 0 0 0 0 0 0 0 0 0 0 0 0 0 0 0 0 0 0 0 0 0 0 0 0 0 0 0 0
0 0 0 0 0 0 0 0 0 0 0 0 0 0 0 0 0 0 0 0 0 0 0 0 0 0 0 0 0 0 0 0 0 0 0 0 0 0 0 0 0 0 0 0
0 0 0 0 0 0 0 0 0 0 0 0 0 0 0 0 0 0 0 0 0 0 0 0 0 0 0 0 0 0 0 0 0 0 0 0 0 0 0 0 0 0 0 0
Wind_Speed_500mb
27 17 23 39 33 24 43 31 22 31 23 40 30 23 28 20 13 9 12 15 21 19 22 26 28 32 33 36 35 33 35 31 32 34 33 32 32 33 37 40 45 47 47 41
27 28 21 62 46 44 54 17 14 18 33 35 38 22 19 13 12 14 16 18 20 24 27 30 33 35 37 38 33 37 43 38 33 35 38 41 36 31 28 29 34 35 39 48
18 22 44 40 16 6 12 8 7 8 25 28 18 15 14 11 18 18 14 18 24 27 29 29 31 37 40 45 51 46 39 38 39 39 41 40 40 35 35 32 31 34 38 40
24 26 28 14 13 5 2 9 8 2 19 22 24 17 14 23 17 10 15 21 23 23 27 30 33 35 35 40 44 45 40 40 37 44 45 41 37 37 35 33 36 39 35 32
20 26 32 41 18 3 5 2 10 10 24 20 16 8 23 15 11 11 15 17 22 24 27 32 33 37 39 43 47 39 43 43 47 44 48 44 41 38 37 36 35 39 39 40
23 28 34 13 23 25 10 2 6 16 10 13 8 10 13 8 9 13 14 18 21 26 27 30 33 36 36 42 45 45 43 48 53 56 56 59 56 49 48 43 41 38 38 39
22 21 29 24 20 7 7 11 19 19 18 9 3 12 8 6 9 11 16 20 23 26 26 28 34 37 40 42 43 47 49 50 52 52 51 54 62 62 59 51 43 41 44 45
21 25 19 28 8 7 17 25 22 17 13 8 4 2 5 8 10 14 17 20 23 25 28 31 32 35 35 39 41 48 48 49 48 44 48 47 46 45 51 52 49 45 44 45
10 10 16 20 23 19 19 22 13 12 14 7 2 1 5 7 10 13 17 20 22 25 30 31 33 33 39 41 43 48 52 55 55 49 46 46 42 39 44 44 48 44 43 51
1 15 13 16 16 14 10 18 17 12 8 2 1 2 4 8 11 14 17 19 21 24 27 30 36 40 40 38 43 46 50 52 51 46 44 35 37 37 38 41 40 40 47 42
15 19 13 11 14 13 14 15 17 12 7 6 3 2 4 6 9 13 17 20 23 25 30 34 38 37 35 39 42 47 50 52 50 47 40 38 43 41 39 41 43 48 51 39
5 16 7 5 19 15 18 12 10 8 7 6 4 1 2 4 8 11 16 17 22 26 34 35 40 42 37 36 39 44 48 49 49 46 40 38 45 46 36 31 37 51 59 53
11 9 11 3 4 17 15 13 12 9 8 8 6 2 2 5 7 13 14 17 20 24 34 33 39 37 38 37 39 40 42 38 40 41 45 40 43 46 46 39 31 26 32 37
4 3 2 2 11 14 14 15 16 10 9 9 6 2 1 5 7 11 13 16 18 23 27 33 37 41 42 37 37 36 35 32 34 36 36 39 43 42 44 41 39 39 36 35
9 13 11 11 12 15 15 16 13 14 12 9 6 2 2 4 7 10 12 15 16 16 24 28 33 39 40 39 36 37 35 36 35 33 35 38 36 36 33 39 41 38 29 28
10 15 13 14 19 18 18 17 17 16 15 12 10 6 4 3 4 8 10 14 16 18 23 26 29 33 49 43 34 31 35 35 33 33 36 38 37 37 35 32 30 34 35 33
9 15 13 12 16 21 20 18 17 17 18 17 14 10 6 3 3 7 9 13 14 15 21 27 30 24 40 51 36 31 30 36 40 39 36 37 37 33 34 32 32 27 26 29
16 17 17 17 18 20 19 19 19 19 19 18 17 14 11 8 5 6 8 12 14 13 18 27 21 26 27 39 25 32 33 37 38 37 36 39 41 37 37 34 32 35 35 34
20 19 14 14 16 14 15 19 21 20 20 21 21 19 18 13 13 8 10 14 14 16 20 23 23 20 28 22 20 23 30 29 31 33 35 34 36 36 42 42 39 40 40 39
11 13 9 9 11 13 16 18 20 22 23 24 24 23 23 21 17 14 14 19 21 20 28 17 26 24 18 17 23 19 24 25 27 28 31 30 36 36 40 41 41 42 45 45
12 11 10 13 14 14 16 18 21 25 26 28 29 30 30 28 32 30 24 26 22 22 23 14 20 31 15 12 22 20 20 21 24 24 25 28 27 27 30 38 39 40 48 46
8 13 15 16 17 18 18 18 21 24 27 30 32 32 33 32 33 35 35 31 25 29 17 10 22 31 25 13 18 18 20 20 18 20 24 24 25 28 36 29 35 38 37 41
11 10 12 18 21 25 24 24 25 29 33 35 37 37 37 35 34 36 38 38 41 31 25 14 28 28 26 11 16 17 16 18 18 16 19 22 22 26 28 27 27 38 32 39
21 18 22 24 22 23 31 31 32 34 37 40 42 41 39 37 38 39 39 34 38 34 31 27 27 28 27 8 12 16 16 17 18 18 17 21 20 21 23 26 23 31 25 39
35 22 30 26 35 41 39 47 42 40 39 40 42 42 41 40 41 35 30 15 16 27 34 34 27 25 23 11 12 15 17 18 17 20 17 17 18 19 21 25 32 39 35 35
34 36 29 24 26 35 38 41 47 48 39 37 45 44 48 42 49 48 38 42 37 32 32 29 32 30 22 15 18 20 16 17 16 17 22 17 17 17 18 19 24 25 34 26
42 32 41 36 36 42 42 35 46 43 45 42 36 47 42 42 29 34 32 26 30 36 32 32 31 26 29 22 20 21 23 17 19 15 19 15 17 16 17 17 18 25 25 28
Wind_Direction_500mb
160 146 204 252 270 59 310 305 325 344 13 158 159 140 123 147 122 64 22 360 19 6 345 334 329 322 320 316 315 318 315 312 314 305 308 299 296 285 276 271 268 270 272 270
168 146 148 276 226 213 223 292 311 340 81 93 104 122 147 121 72 31 29 6 351 338 330 327 324 323 321 322 320 313 304 302 301 305 307 301 296 291 287 285 287 287 279 266
319 230 167 227 268 296 318 57 37 347 80 113 127 126 88 59 52 50 10 346 336 331 328 326 321 315 316 306 300 296 299 308 304 295 300 305 301 292 288 288 286 285 279 284
296 274 291 281 103 117 316 344 57 216 130 83 47 56 51 72 74 31 353 343 338 334 328 324 322 323 314 318 322 318 292 300 294 291 292 288 291 297 294 291 292 294 289 283
281 280 282 274 138 63 88 26 352 161 115 119 125 172 96 73 42 8 349 342 334 332 327 325 321 308 305 314 313 319 320 305 295 295 293 294 289 285 293 289 287 292 293 288
272 273 276 89 88 92 87 67 103 122 103 114 98 290 86 35 5 352 345 344 338 331 328 327 323 325 317 310 313 309 303 302 303 299 293 291 287 286 287 286 282 284 288 291
271 247 266 112 119 123 252 83 80 92 83 86 52 39 38 3 352 343 340 335 336 336 332 325 323 319 324 313 306 310 309 305 303 304 303 294 281 275 274 279 278 275 281 290
249 268 253 103 127 322 108 113 105 95 98 106 93 21 329 350 341 339 339 340 340 335 333 334 332 332 328 326 323 314 319 320 317 316 313 308 303 277 266 271 273 271 278 290
32 54 92 70 92 124 128 126 115 118 118 130 154 294 338 326 336 340 341 339 336 339 336 333 332 335 329 324 322 322 322 322 321 323 321 314 301 293 275 277 268 267 271 280
220 128 143 117 102 112 96 118 115 118 117 108 349 333 331 338 333 336 338 339 335 334 335 331 330 330 330 324 321 325 329 329 327 323 327 317 312 302 284 285 279 263 274 291
268 155 152 181 158 140 113 115 118 113 114 96 59 21 346 328 336 333 336 339 333 332 333 331 324 331 337 334 333 335 331 331 332 328 332 330 319 312 298 280 271 274 276 294
335 49 120 33 179 173 151 154 153 147 144 117 106 119 337 331 331 339 340 333 337 333 336 333 333 335 336 339 342 339 336 334 333 331 329 329 324 324 316 300 288 271 268 279
36 73 187 122 193 169 167 175 173 173 166 172 155 118 17 354 333 339 334 337 337 329 336 343 344 336 335 338 344 344 344 349 348 350 344 332 329 330 331 327 321 292 284 292
308 241 114 223 170 165 170 168 169 169 166 168 170 149 12 359 345 349 344 339 337 340 341 351 349 343 348 345 348 346 349 343 337 333 342 342 339 342 344 340 331 321 316 331
251 204 239 194 167 176 179 179 184 189 184 188 201 223 295 319 330 338 343 342 343 341 344 347 346 344 356 352 354 355 355 349 347 339 336 334 337 337 339 358 7 6 342 323
231 230 236 202 172 189 200 204 213 212 201 209 212 227 261 299 328 350 346 345 350 350 351 345 344 345 355 4 358 352 356 0 358 358 357 353 356 1 2 356 357 6 8 0
251 226 217 223 200 197 213 227 232 230 214 215 215 215 224 260 289 338 349 352 352 352 348 346 5 14 348 0 359 5 7 8 10 12 11 2 4 3 2 5 7 12 6 341
242 234 228 223 234 218 211 223 232 231 221 220 217 214 223 240 281 320 330 346 346 345 340 348 10 11 348 360 12 5 9 12 14 15 13 11 12 16 17 17 13 8 5 353
237 220 226 226 227 237 230 229 227 230 224 220 219 227 235 248 245 274 312 301 321 343 322 343 356 11 341 358 11 359 1 9 12 17 19 19 24 18 19 22 19 18 14 11
232 225 221 202 216 234 235 236 236 228 228 226 227 234 241 250 254 272 284 292 267 298 338 333 2 352 350 11 1 7 349 356 11 13 9 21 25 18 22 24 24 20 19 14
239 222 220 227 227 235 244 244 238 234 231 232 234 238 247 260 265 274 266 283 246 293 324 331 343 350 346 352 20 352 354 355 2 360 6 8 18 15 16 13 17 19 21 21
236 230 232 239 239 248 255 251 245 240 237 236 239 245 250 255 265 268 272 267 253 266 302 278 277 337 354 21 17 345 348 353 360 356 356 358 7 11 14 18 8 17 8 8
286 255 241 252 248 251 254 250 247 244 243 239 240 243 248 254 260 266 263 268 246 249 263 276 266 303 343 359 347 334 339 343 351 350 348 358 351 354 360 6 16 353 9 16
269 272 253 255 272 276 255 247 253 251 249 247 243 243 247 254 258 258 263 256 248 245 257 258 272 289 324 321 322 323 329 326 339 339 343 348 349 354 356 348 357 355 2 2
279 292 280 273 268 261 266 258 243 246 251 252 252 253 246 248 248 255 266 285 261 265 263 268 275 284 303 291 277 305 312 316 312 333 329 338 342 351 349 349 337 353 351 357
281 279 284 281 288 272 283 271 254 248 247 251 254 253 249 252 253 245 238 249 260 258 257 246 263 277 268 268 289 289 289 303 306 317 329 324 330 338 340 341 338 335 338 350
282 264 305 301 294 289 295 264 269 257 249 251 254 253 243 246 256 236 236 251 255 242 258 255 251 264 265 263 276 277 268 280 292 294 308 310 315 320 323 327 333 327 329 328
Wind_Speed_850mb
27 17 23 39 33 24 43 31 22 31 23 40 30 23 28 20 13 9 12 15 21 19 22 26 28 32 33 36 35 33 35 31 32 34 33 32 32 33 37 40 45 47 47 41
27 28 21 62 46 44 54 17 14 18 33 35 38 22 19 13 12 14 16 18 20 24 27 30 33 35 37 38 33 37 43 38 33 35 38 41 36 31 28 29 34 35 39 48
18 22 44 40 16 6 12 8 7 8 25 28 18 15 14 11 18 18 14 18 24 27 29 29 31 37 40 45 51 46 39 38 39 39 41 40 40 35 35 32 31 34 38 40
24 26 28 14 13 5 2 9 8 2 19 22 24 17 14 23 17 10 15 21 23 23 27 30 33 35 35 40 44 45 40 40 37 44 45 41 37 37 35 33 36 39 35 32
20 26 32 41 18 3 5 2 10 10 24 20 16 8 23 15 11 11 15 17 22 24 27 32 33 37 39 43 47 39 43 43 47 44 48 44 41 38 37 36 35 39 39 40
23 28 34 13 23 25 10 2 6 16 10 13 8 10 13 8 9 13 14 18 21 26 27 30 33 36 36 42 45 45 43 48 53 56 56 59 56 49 48 43 41 38 38 39
22 21 29 24 20 7 7 11 19 19 18 9 3 12 8 6 9 11 16 20 23 26 26 28 34 37 40 42 43 47 49 50 52 52 51 54 62 62 59 51 43 41 44 45
21 25 19 28 8 7 17 25 22 17 13 8 4 2 5 8 10 14 17 20 23 25 28 31 32 35 35 39 41 48 48 49 48 44 48 47 46 45 51 52 49 45 44 45
10 10 16 20 23 19 19 22 13 12 14 7 2 1 5 7 10 13 17 20 22 25 30 31 33 33 39 41 43 48 52 55 55 49 46 46 42 39 44 44 48 44 43 51
1 15 13 16 16 14 10 18 17 12 8 2 1 2 4 8 11 14 17 19 21 24 27 30 36 40 40 38 43 46 50 52 51 46 44 35 37 37 38 41 40 40 47 42
15 19 13 11 14 13 14 15 17 12 7 6 3 2 4 6 9 13 17 20 23 25 30 34 38 37 35 39 42 47 50 52 50 47 40 38 43 41 39 41 43 48 51 39
5 16 7 5 19 15 18 12 10 8 7 6 4 1 2 4 8 11 16 17 22 26 34 35 40 42 37 36 39 44 48 49 49 46 40 38 45 46 36 31 37 51 59 53
11 9 11 3 4 17 15 13 12 9 8 8 6 2 2 5 7 13 14 17 20 24 34 33 39 37 38 37 39 40 42 38 40 41 45 40 43 46 46 39 31 26 32 37
4 3 2 2 11 14 14 15 16 10 9 9 6 2 1 5 7 11 13 16 18 23 27 33 37 41 42 37 37 36 35 32 34 36 36 39 43 42 44 41 39 39 36 35
9 13 11 11 12 15 15 16 13 14 12 9 6 2 2 4 7 10 12 15 16 16 24 28 33 39 40 39 36 37 35 36 35 33 35 38 36 36 33 39 41 38 29 28
10 15 13 14 19 18 18 17 17 16 15 12 10 6 4 3 4 8 10 14 16 18 23 26 29 33 49 43 34 31 35 35 33 33 36 38 37 37 35 32 30 34 35 33
9 15 13 12 16 21 20 18 17 17 18 17 14 10 6 3 3 7 9 13 14 15 21 27 30 24 40 51 36 31 30 36 40 39 36 37 37 33 34 32 32 27 26 29
16 17 17 17 18 20 19 19 19 19 19 18 17 14 11 8 5 6 8 12 14 13 18 27 21 26 27 39 25 32 33 37 38 37 36 39 41 37 37 34 32 35 35 34
20 19 14 14 16 14 15 19 21 20 20 21 21 19 18 13 13 8 10 14 14 16 20 23 23 20 28 22 20 23 30 29 31 33 35 34 36 36 42 42 39 40 40 39
11 13 9 9 11 13 16 18 20 22 23 24 24 23 23 21 17 14 14 19 21 20 28 17 26 24 18 17 23 19 24 25 27 28 31 30 36 36 40 41 41 42 45 45
12 11 10 13 14 14 16 18 21 25 26 28 29 30 30 28 32 30 24 26 22 22 23 14 20 31 15 12 22 20 20 21 24 24 25 28 27 27 30 38 39 40 48 46
8 13 15 16 17 18 18 18 21 24 27 30 32 32 33 32 33 35 35 31 25 29 17 10 22 31 25 13 18 18 20 20 18 20 24 24 25 28 36 29 35 38 37 41
11 10 12 18 21 25 24 24 25 29 33 35 37 37 37 35 34 36 38 38 41 31 25 14 28 28 26 11 16 17 16 18 18 16 19 22 22 26 28 27 27 38 32 39
21 18 22 24 22 23 31 31 32 34 37 40 42 41 39 37 38 39 39 34 38 34 31 27 27 28 27 8 12 16 16 17 18 18 17 21 20 21 23 26 23 31 25 39
35 22 30 26 35 41 39 47 42 40 39 40 42 42 41 40 41 35 30 15 16 27 34 34 27 25 23 11 12 15 17 18 17 20 17 17 18 19 21 25 32 39 35 35
34 36 29 24 26 35 38 41 47 48 39 37 45 44 48 42 49 48 38 42 37 32 32 29 32 30 22 15 18 20 16 17 16 17 22 17 17 17 18 19 24 25 34 26
42 32 41 36 36 42 42 35 46 43 45 42 36 47 42 42 29 34 32 26 30 36 32 32 31 26 29 22 20 21 23 17 19 15 19 15 17 16 17 17 18 25 25 28
Wind_Direction_850mb
160 146 204 252 270 59 310 305 325 344 13 158 159 140 123 147 122 64 22 360 19 6 345 334 329 322 320 316 315 318 315 312 314 305 308 299 296 285 276 271 268 270 272 270
168 146 148 276 226 213 223 292 311 340 81 93 104 122 147 121 72 31 29 6 351 338 330 327 324 323 321 322 320 313 304 302 301 305 307 301 296 291 287 285 287 287 279 266
319 230 167 227 268 296 318 57 37 347 80 113 127 126 88 59 52 50 10 346 336 331 328 326 321 315 316 306 300 296 299 308 304 295 300 305 301 292 288 288 286 285 279 284
296 274 291 281 103 117 316 344 57 216 130 83 47 56 51 72 74 31 353 343 338 334 328 324 322 323 314 318 322 318 292 300 294 291 292 288 291 297 294 291 292 294 289 283
281 280 282 274 138 63 88 26 352 161 115 119 125 172 96 73 42 8 349 342 334 332 327 325 321 308 305 314 313 319 320 305 295 295 293 294 289 285 293 289 287 292 293 288
272 273 276 89 88 92 87 67 103 122 103 114 98 290 86 35 5 352 345 344 338 331 328 327 323 325 317 310 313 309 303 302 303 299 293 291 287 286 287 286 282 284 288 291
271 247 266 112 119 123 252 83 80 92 83 86 52 39 38 3 352 343 340 335 336 336 332 325 323 319 324 313 306 310 309 305 303 304 303 294 281 275 274 279 278 275 281 290
249 268 253 103 127 322 108 113 105 95 98 106 93 21 329 350 341 339 339 340 340 335 333 334 332 332 328 326 323 314 319 320 317 316 313 308 303 277 266 271 273 271 278 290
32 54 92 70 92 124 128 126 115 118 118 130 154 294 338 326 336 340 341 339 336 339 336 333 332 335 329 324 322 322 322 322 321 323 321 314 301 293 275 277 268 267 271 280
220 128 143 117 102 112 96 118 115 118 117 108 349 333 331 338 333 336 338 339 335 334 335 331 330 330 330 324 321 325 329 329 327 323 327 317 312 302 284 285 279 263 274 291
268 155 152 181 158 140 113 115 118 113 114 96 59 21 346 328 336 333 336 339 333 332 333 331 324 331 337 334 333 335 331 331 332 328 332 330 319 312 298 280 271 274 276 294
335 49 120 33 179 173 151 154 153 147 144 117 106 119 337 331 331 339 340 333 337 333 336 333 333 335 336 339 342 339 336 334 333 331 329 329 324 324 316 300 288 271 268 279
36 73 187 122 193 169 167 175 173 173 166 172 155 118 17 354 333 339 334 337 337 329 336 343 344 336 335 338 344 344 344 349 348 350 344 332 329 330 331 327 321 292 284 292
308 241 114 223 170 165 170 168 169 169 166 168 170 149 12 359 345 349 344 339 337 340 341 351 349 343 348 345 348 346 349 343 337 333 342 342 339 342 344 340 331 321 316 331
251 204 239 194 167 176 179 179 184 189 184 188 201 223 295 319 330 338 343 342 343 341 344 347 346 344 356 352 354 355 355 349 347 339 336 334 337 337 339 358 7 6 342 323
231 230 236 202 172 189 200 204 213 212 201 209 212 227 261 299 328 350 346 345 350 350 351 345 344 345 355 4 358 352 356 0 358 358 357 353 356 1 2 356 357 6 8 0
251 226 217 223 200 197 213 227 232 230 214 215 215 215 224 260 289 338 349 352 352 352 348 346 5 14 348 0 359 5 7 8 10 12 11 2 4 3 2 5 7 12 6 341
242 234 228 223 234 218 211 223 232 231 221 220 217 214 223 240 281 320 330 346 346 345 340 348 10 11 348 360 12 5 9 12 14 15 13 11 12 16 17 17 13 8 5 353
237 220 226 226 227 237 230 229 227 230 224 220 219 227 235 248 245 274 312 301 321 343 322 343 356 11 341 358 11 359 1 9 12 17 19 19 24 18 19 22 19 18 14 11
232 225 221 202 216 234 235 236 236 228 228 226 227 234 241 250 254 272 284 292 267 298 338 333 2 352 350 11 1 7 349 356 11 13 9 21 25 18 22 24 24 20 19 14
239 222 220 227 227 235 244 244 238 234 231 232 234 238 247 260 265 274 266 283 246 293 324 331 343 350 346 352 20 352 354 355 2 360 6 8 18 15 16 13 17 19 21 21
236 230 232 239 239 248 255 251 245 240 237 236 239 245 250 255 265 268 272 267 253 266 302 278 277 337 354 21 17 345 348 353 360 356 356 358 7 11 14 18 8 17 8 8
286 255 241 252 248 251 254 250 247 244 243 239 240 243 248 254 260 266 263 268 246 249 263 276 266 303 343 359 347 334 339 343 351 350 348 358 351 354 360 6 16 353 9 16
269 272 253 255 272 276 255 247 253 251 249 247 243 243 247 254 258 258 263 256 248 245 257 258 272 289 324 321 322 323 329 326 339 339 343 348 349 354 356 348 357 355 2 2
279 292 280 273 268 261 266 258 243 246 251 252 252 253 246 248 248 255 266 285 261 265 263 268 275 284 303 291 277 305 312 316 312 333 329 338 342 351 349 349 337 353 351 357
281 279 284 281 288 272 283 271 254 248 247 251 254 253 249 252 253 245 238 249 260 258 257 246 263 277 268 268 289 289 289 303 306 317 329 324 330 338 340 341 338 335 338 350
282 264 305 301 294 289 295 264 269 257 249 251 254 253 243 246 256 236 236 251 255 242 258 255 251 264 265 263 276 277 268 280 292 294 308 310 315 320 323 327 333 327 329 328